DW4393 Weather Reports


Display with metric or nautical units.
time (UTC)temp
F
wind
direction
speed
MPH
gust
MPH
rain 1hr
in
rain 24hr
in
rain mn
in
humidity
%
barometer
mb
20260831011803 77 252 0.0 0.0 0.00 0.00 0.00 88 1018.7
20260831011303 77 252 0.0 0.0 0.00 0.00 0.00 88 1018.7
20260831010802 77 252 0.0 0.0 0.00 0.00 0.00 87 1018.7
20260831010303 77 252 0.0 0.0 0.00 0.00 0.00 87 1018.6
20260831004802 78 252 0.0 0.0 0.00 0.00 0.00 86 1018.5
20260831004303 78 252 0.0 0.0 0.00 0.00 0.00 85 1018.4
20260831003802 78 252 0.0 0.0 0.00 0.00 0.00 84 1018.4
20260831003303 78 252 0.0 0.0 0.00 0.00 0.00 84 1018.4
20260831001803 79 252 0.0 0.0 0.00 0.00 0.00 83 1018.3
20260831000803 80 252 0.0 0.0 0.00 0.00 0.00 80 1018.2
20260831000303 80 252 0.0 0.0 0.00 0.00 0.00 79 1018.3
20260830234802 81 252 0.0 0.0 0.00 0.00 0.00 76 1018.1
20260830233802 82 252 0.0 0.0 0.00 0.00 0.00 76 1018.1
20260830233303 82 252 0.0 0.0 0.00 0.00 0.00 75 1018.0
20260830231803 83 252 0.0 0.0 0.00 0.00 0.00 74 1018.1
20260830231303 84 252 0.0 0.0 0.00 0.00 0.00 70 1018.0
20260830230803 84 252 0.0 0.0 0.00 0.00 0.00 68 1018.0
20260830230302 84 252 0.0 0.0 0.00 0.00 0.00 68 1017.9
20260830224803 85 252 0.0 0.0 0.00 0.00 0.00 66 1017.7
20260830224303 85 252 0.0 0.0 0.00 0.00 0.00 66 1017.7
20260830223802 85 252 0.0 0.0 0.00 0.00 0.00 65 1017.8
20260830223303 85 252 0.0 0.0 0.00 0.00 0.00 66 1017.8
20260830221802 85 252 0.0 0.0 0.00 0.00 0.00 67 1017.9
20260830221303 86 252 0.0 0.0 0.00 0.00 0.00 67 1017.8
20260830220803 86 260 0.0 0.0 0.00 0.00 0.00 66 1017.9
20260830220302 86 260 0.0 0.0 0.00 0.00 0.00 64 1017.8
20260830213803 86 200 0.0 0.0 0.00 0.00 0.00 64 1017.8
20260830213302 86 200 0.0 0.0 0.00 0.00 0.00 64 1017.9
20260830211802 87 159 0.0 0.0 0.00 0.00 0.00 60 1018.1
20260830211303 87 159 0.0 0.0 0.00 0.00 0.00 60 1018.1
20260830210802 87 211 0.0 0.0 0.00 0.00 0.00 62 1018.0
20260830210303 87 250 0.0 0.0 0.00 0.00 0.00 66 1018.1
20260830204803 86 134 0.0 0.0 0.00 0.00 0.00 64 1018.2
20260830204303 88 134 0.0 0.0 0.00 0.00 0.00 63 1018.3
20260830203803 88 131 0.0 0.0 0.00 0.00 0.00 64 1018.4
20260830203303 87 133 0.0 0.0 0.00 0.00 0.00 65 1018.2
20260830201803 88 69 0.0 0.0 0.00 0.00 0.00 66 1018.4
20260830201303 88 69 0.0 0.0 0.00 0.00 0.00 63 1018.5
20260830200803 87 69 0.0 0.0 0.00 0.00 0.00 67 1018.5
20260830194803 89 113 0.0 0.0 0.00 0.00 0.00 62 1018.8
20260830194303 88 114 0.0 0.0 0.00 0.00 0.00 64 1018.8
20260830193803 88 155 0.0 0.0 0.00 0.00 0.00 63 1018.8
20260830193303 87 178 0.0 0.0 0.00 0.00 0.00 66 1019.0
20260830191803 84 244 0.0 0.0 0.00 0.00 0.00 72 1019.3
20260830190803 84 248 0.0 0.0 0.00 0.00 0.00 72 1019.4
20260830190303 83 154 0.0 0.0 0.00 0.00 0.00 75 1019.5
20260830184803 83 148 0.0 0.0 0.00 0.00 0.00 72 1019.6
20260830184303 84 148 0.0 0.0 0.00 0.00 0.00 70 1019.7
20260830181803 86 222 0.0 0.0 0.00 0.00 0.00 68 1019.9
20260830181303 85 205 0.0 0.0 0.00 0.00 0.00 69 1020.0
20260830180803 85 158 0.0 0.0 0.00 0.00 0.00 69 1020.0
20260830180303 83 204 0.0 0.0 0.00 0.00 0.00 75 1020.2
20260830174803 83 273 0.0 0.0 0.00 0.00 0.00 75 1020.3
20260830174303 83 273 0.0 0.0 0.00 0.00 0.00 74 1020.5
20260830173803 83 273 0.0 0.0 0.00 0.00 0.00 74 1020.6
20260830173303 83 273 0.0 0.0 0.00 0.00 0.00 74 1020.5
20260830171803 84 198 0.0 0.0 0.00 0.00 0.00 73 1020.9
20260830171303 83 188 0.0 0.0 0.00 0.00 0.00 78 1020.9
20260830170803 83 188 0.0 0.0 0.00 0.00 0.00 74 1021.0
20260830170304 83 188 0.0 0.0 0.00 0.00 0.00 76 1021.0
20260830164803 82 250 0.0 0.0 0.00 0.00 0.00 78 1021.1
20260830164303 82 250 0.0 0.0 0.00 0.00 0.00 77 1021.1
20260830163803 82 250 0.0 0.0 0.00 0.00 0.00 76 1021.1
20260830163303 81 250 0.0 0.0 0.00 0.00 0.00 77 1021.2
20260830161803 82 250 0.0 0.0 0.00 0.00 0.00 79 1021.5
20260830160803 81 250 0.0 0.0 0.00 0.00 0.00 77 1021.7
20260830154803 80 240 0.0 0.0 0.00 0.00 0.00 82 1021.8
20260830154303 80 240 0.0 0.0 0.00 0.00 0.00 81 1021.9
20260830153803 80 188 0.0 0.0 0.00 0.00 0.00 83 1021.9
20260830153304 79 152 0.0 0.0 0.00 0.00 0.00 85 1021.9
20260830151803 79 152 0.0 0.0 0.00 0.00 0.00 84 1022.0
20260830151303 79 152 0.0 0.0 0.00 0.00 0.00 84 1022.0
20260830150803 79 152 0.0 0.0 0.00 0.00 0.00 85 1022.0
20260830150303 79 138 0.0 0.0 0.00 0.00 0.00 86 1022.1
20260830144803 78 292 0.0 0.0 0.00 0.00 0.00 89 1022.0
20260830144303 78 292 0.0 0.0 0.00 0.00 0.00 89 1021.9
20260830143803 77 292 0.0 0.0 0.00 0.00 0.00 90 1021.9
20260830143304 76 292 0.0 0.0 0.00 0.00 0.00 91 1021.9
20260830141803 76 292 0.0 0.0 0.00 0.00 0.00 93 1021.9
20260830141303 75 292 0.0 0.0 0.00 0.00 0.00 93 1021.9
20260830140803 75 292 0.0 0.0 0.00 0.00 0.00 94 1021.9
20260830140303 75 292 0.0 0.0 0.00 0.00 0.00 95 1021.9
20260830134803 74 292 0.0 0.0 0.00 0.00 0.00 95 1021.8
20260830134304 74 292 0.0 0.0 0.00 0.00 0.00 96 1021.7
20260830133803 74 292 0.0 0.0 0.00 0.00 0.00 96 1021.8
20260830133303 74 292 0.0 0.0 0.00 0.00 0.00 96 1021.8
20260830131803 73 292 0.0 0.0 0.00 0.00 0.00 96 1021.7
20260830131304 73 292 0.0 0.0 0.00 0.00 0.00 96 1021.7
20260830130803 72 292 0.0 0.0 0.00 0.00 0.00 96 1021.8
20260830130303 72 292 0.0 0.0 0.00 0.00 0.00 96 1021.8
20260830124803 71 292 0.0 0.0 0.00 0.00 0.00 96 1021.8
20260830124303 71 292 0.0 0.0 0.00 0.00 0.00 96 1021.8
20260830123803 71 292 0.0 0.0 0.00 0.00 0.00 96 1021.7
20260830123307 71 292 0.0 0.0 0.00 0.00 0.00 96 1021.8
20260830121803 70 292 0.0 0.0 0.00 0.00 0.00 96 1021.6
20260830121304 70 292 0.0 0.0 0.00 0.00 0.00 96 1021.5
20260830120804 70 292 0.0 0.0 0.00 0.00 0.00 96 1021.5
20260830120303 70 292 0.0 0.0 0.00 0.00 0.00 96 1021.5
20260830114803 70 292 0.0 0.0 0.00 0.00 0.00 96 1021.2
20260830114304 69 292 0.0 0.0 0.00 0.00 0.00 96 1021.2
20260830113804 69 292 0.0 0.0 0.00 0.00 0.00 96 1021.1
20260830113304 69 292 0.0 0.0 0.00 0.00 0.00 96 1020.9
20260830111803 70 292 0.0 0.0 0.00 0.00 0.00 96 1020.6
20260830111303 69 292 0.0 0.0 0.00 0.00 0.00 96 1020.7
20260830110804 70 292 0.0 0.0 0.00 0.00 0.00 96 1020.5
20260830104803 69 292 0.0 0.0 0.00 0.00 0.00 96 1020.3
20260830103804 69 292 0.0 0.0 0.00 0.00 0.00 96 1020.1
20260830103303 70 292 0.0 0.0 0.00 0.00 0.00 96 1020.0
20260830101803 70 292 0.0 0.0 0.00 0.00 0.00 96 1019.9
20260830101304 70 292 0.0 0.0 0.00 0.00 0.00 96 1019.8
20260830100803 70 292 0.0 0.0 0.00 0.00 0.00 96 1019.8
20260830100304 70 292 0.0 0.0 0.00 0.00 0.00 96 1019.8
20260830094803 70 292 0.0 0.0 0.00 0.00 0.00 96 1019.8
20260830094304 70 292 0.0 0.0 0.00 0.00 0.00 96 1019.8
20260830091804 70 292 0.0 0.0 0.00 0.00 0.00 95 1019.7
20260830091303 70 292 0.0 0.0 0.00 0.00 0.00 96 1019.9
20260830090803 70 292 0.0 0.0 0.00 0.00 0.00 96 1019.8
20260830090303 70 292 0.0 0.0 0.00 0.00 0.00 96 1019.9
20260830084804 70 292 0.0 0.0 0.00 0.00 0.00 95 1020.1
20260830084303 70 292 0.0 0.0 0.00 0.00 0.00 95 1020.1
20260830083304 70 292 0.0 0.0 0.00 0.00 0.00 95 1019.9
20260830081804 70 292 0.0 0.0 0.00 0.00 0.00 95 1019.7
20260830080804 70 292 0.0 0.0 0.00 0.00 0.00 95 1019.7
20260830080304 70 292 0.0 0.0 0.00 0.00 0.00 95 1019.7
20260830074803 70 292 0.0 0.0 0.00 0.00 0.00 95 1019.6
20260830074304 70 292 0.0 0.0 0.00 0.00 0.00 95 1019.6
20260830073804 71 292 0.0 0.0 0.00 0.00 0.00 95 1019.8
20260830071803 71 292 0.0 0.0 0.00 0.00 0.00 95 1019.9
20260830071303 71 292 0.0 0.0 0.00 0.00 0.00 95 1019.9
20260830070804 71 292 0.0 0.0 0.00 0.00 0.00 95 1019.8
20260830070303 71 292 0.0 0.0 0.00 0.00 0.00 95 1019.8
20260830064803 71 292 0.0 0.0 0.00 0.00 0.00 95 1019.9
20260830063804 71 292 0.0 0.0 0.00 0.00 0.00 95 1020.0
20260830063303 71 292 0.0 0.0 0.00 0.00 0.00 95 1020.0
20260830061804 72 292 0.0 0.0 0.00 0.00 0.00 95 1019.8
20260830061303 72 292 0.0 0.0 0.00 0.00 0.00 95 1019.9
20260830060803 72 292 0.0 0.0 0.00 0.00 0.00 95 1020.1
20260830060304 72 292 0.0 0.0 0.00 0.00 0.00 95 1020.1
20260830054804 72 292 0.0 0.0 0.00 0.00 0.00 95 1020.3
20260830054304 72 292 0.0 0.0 0.00 0.00 0.00 94 1020.4
20260830053304 72 292 0.0 0.0 0.00 0.00 0.00 94 1020.4
20260830051804 73 292 0.0 0.0 0.00 0.00 0.00 94 1020.5
20260830051303 73 292 0.0 0.0 0.00 0.00 0.00 94 1020.4
20260830050804 73 292 0.0 0.0 0.00 0.00 0.00 94 1020.4
20260830050303 73 292 0.0 0.0 0.00 0.00 0.00 94 1020.5
20260830044303 73 292 0.0 0.0 0.00 0.00 0.00 94 1020.4
20260830043803 73 292 0.0 0.0 0.00 0.00 0.00 94 1020.5
20260830041804 74 292 0.0 0.0 0.00 0.00 0.00 93 1020.6
20260830041304 74 292 0.0 0.0 0.00 0.00 0.00 93 1020.5
20260830040823 74 292 0.0 0.0 0.00 0.00 0.00 93 1020.5
20260830040304 74 292 0.0 0.0 0.00 0.00 0.00 93 1020.5
20260830034304 75 292 0.0 0.0 0.00 0.00 0.00 91 1020.7
20260830033804 75 292 0.0 0.0 0.00 0.00 0.00 90 1020.7
20260830033304 75 292 0.0 0.0 0.00 0.00 0.00 91 1020.7
20260830031803 75 292 0.0 0.0 0.00 0.00 0.00 91 1020.7
20260830031304 75 292 0.0 0.0 0.00 0.00 0.00 91 1020.8
20260830030804 75 292 0.0 0.0 0.00 0.00 0.00 92 1020.7
20260830030304 75 292 0.0 0.0 0.00 0.00 0.00 92 1020.7
20260830023804 75 292 0.0 0.0 0.00 0.00 0.00 93 1020.4
20260830023304 75 292 0.0 0.0 0.00 0.00 0.00 93 1020.3
20260830021803 75 292 0.0 0.0 0.00 0.00 0.00 92 1020.2
20260830021302 75 292 0.0 0.0 0.00 0.00 0.00 92 1020.2
20260830020803 76 292 0.0 0.0 0.00 0.00 0.00 92 1020.0
20260830020302 76 292 0.0 0.0 0.00 0.00 0.00 92 1019.8
20260830014302 77 292 0.0 0.0 0.00 0.00 0.00 90 1019.5
20260830013805 77 292 0.0 0.0 0.00 0.00 0.00 89 1019.3
20260830013303 77 292 0.0 0.0 0.00 0.00 0.00 89 1019.2